Showing default

COSMOS 2559 (GLONASS), 54031

Orbit data source: Space-Track

COSMOS 2559 (GLONASS), 54031 is a Commonwealth of Independent States-origin payload satellite in MEO that was launched on Mon, 10 Oct 2022 UTC via a SOYUZ-2-1B launch vehicle from the Plesetsk Missile And Space Complex (PKMTR). Payload-class satellites include a variety of spacecraft equipped with specific instruments for various scientific and technological missions. These include communications satellites like Starlink; space stations such as the ISS; scientific satellites like the Hubble; Earth observation satellites from companies like Planet Labs, Umbra, and HawkEye 360; GPS; miniature CubeSats for education and research; and military/defense satellites.

Loading next visibility...
Identifier
54031, 2022-130A
Orbit
MEO
Country
Flag of CISCIS
Related business
Manufacturer
Resehetnev ISS
Mission
Operational Defense Navigation
Bus & Motor
EKSPRESS-1000, AOCS
Mass
974 kg wet, ~800 kg dry
Launch date (UTC)
2022-10-10 (4 years ago)
Launch vehicle
SOYUZ-2-1B
Launch site
Plesetsk Missile And Space Complex (PKMTR)
Object type
Payload
Rocket body
Debris
Shape & HBR
Box + 2 Pan, 2.5 m
Radar Cross Section
3.585 m², Large (>1 m²)

Expand to show TLE details & history
Last TLE update: 4 days ago

TLE from 4 days ago
0 COSMOS 2559 (GLONASS)
1 54031U 22130A   26169.33634979 -.00000058  00000-0  00000+0 0  9992
2 54031  64.2705 314.5280 0012585 178.2040 181.7898  2.13101593 28710
Epoch: 2026-06-18T08:04Z
TLE epoch observation values (Epoch: 2026-06-18T08:04:20.621Z)
Latitude
0.00001°
Longitude
-73.15548°
Altitude
19,162.531 km
Speed
3.948 km/s
True Right ascension
20h 58m 02s
True Declination
0° 00' 00"
Sunlit
Object was in daylight at epoch
Visualization orbit readout
Latitude
Unknown
Longitude
Unknown
Altitude
Unknown
Speed
Unknown
Apparent Right ascension
Unknown
Apparent Declination
Unknown
Sunlit
N/A
Visualization observer readout
Local Sidereal Time
21:39:56
Azimuth
Unknown
Elevation
Unknown
Doppler factor
Unknown
Orbital elements
Apogee altitude
19,161.662 km
Perigee altitude
19,097.459 km
Semi-major axis
25,507.697 km
Eccentricity
0.00126
Inclination
64.2705°
RAAN
314.528°
Arg. of periapsis
178.204°
True anomaly
181.7853°
Mean anomaly
181.7898°
Eccentric anomaly
181.78755°
Mean motion
0.53277 °/min
Orbital period
675.72 mins
BSTAR
0
Loading maneuver chart data...
Computing Atmospheric mass density...
Loading historical data...
Loading historical data...
Loading historical data...
Loading historical data...
Loading historical data...
Loading historical data...
Loading historical data...
Other satellites on launch #130 in the year 2022 (2022-10-10 UTC)

Documentation

Showing up to 5 results
|